Tel Aviv, Israel

3:56 AM IDT on September 01, 2016 (GMT +0300)
Ben Gurion

Weather History for LLBG - November, 2011

Change the Weather History Date:

Monday, November 21, 2011

  Actual Average Record
Temperature  
Mean Temperature 60 °F -  
Max Temperature 68 °F 68 °F 86 °F (2002)
Min Temperature 52 °F 52 °F 51 °F (2000)
Degree Days  
Heating Degree Days 5    
Growing Degree Days 10 (Base 50)    
Moisture  
Dew Point 51 °F    
Average Humidity 73    
Maximum Humidity 88    
Minimum Humidity 48    
Precipitation  
Precipitation 0.00 in - - ()
Sea Level Pressure  
Sea Level Pressure 30.10 in    
Wind  
Wind Speed 3 mph ()    
Max Wind Speed 7 mph    
Max Gust Speed -    
Visibility 6.1 miles    
Events      
Averages and records for this station are not official NWS values.
T = Trace of Precipitation, MM = Missing Value Source: Averaged Metar Reports

Daily Weather History Graph

Daily Weather History Graph

Search for Another Location

Airport or City:

Trip Planner

Search our weather history database for the weather conditions in past years. The results will help you decide how hot, cold, wet, or windy it might be!

Date:

Astronomy

Nov. 21, 2011 Rise Set
Actual Time 6:13 AM IST 4:38 PM IST
Civil Twilight 5:47 AM IST 5:04 PM IST
Nautical Twilight 5:18 AM IST 5:34 PM IST
Astronomical Twilight 4:48 AM IST 6:03 PM IST
Moon 1:41 AM IST (11/21) 1:37 PM IST (11/21)
Length of Visible Light 11h 16m
Length of Day
10h 24m
Waning Crescent, 20% of the Moon is Illuminated
Nov 21
Waning Crescent
Nov 25
New
Dec 2
First Quarter
Dec 10
Full
Dec 18
Last Quarter

Hourly Weather History & Observations

Time (IST) Temp. Dew Point Humidity Pressure Visibility Wind Dir Wind Speed Gust Speed Precip Events Conditions
12:50 AM 57.2 °F 53.6 °F 88% 30.06 in - ENE 2.3 mph - N/A   Clear
1:50 AM 55.4 °F 51.8 °F 88% 30.04 in - Variable 2.3 mph - N/A   Clear
2:00 AM - 52 °F % 30.06 in 6 mi 1.2 mph - -   Partly Cloudy
2:50 AM 57.2 °F 51.8 °F 82% 30.06 in - NE 1.2 mph - N/A   Clear
3:50 AM 57.2 °F 50.0 °F 77% 30.04 in - ESE 3.5 mph - N/A   Clear
4:50 AM 55.4 °F 50.0 °F 82% 30.06 in - East 3.5 mph - N/A   Clear
5:50 AM 53.6 °F 50.0 °F 88% 30.06 in - Variable 2.3 mph - N/A   Clear
6:50 AM 53.6 °F 50.0 °F 88% 30.06 in - SW 2.3 mph - N/A   Clear
7:50 AM 57.2 °F 51.8 °F 82% 30.09 in 6.2 mi Variable 1.2 mph - N/A   Partly Cloudy
8:00 AM 57 °F 51 °F 75% 30.11 in 6 mi 1.2 mph - -   Scattered Clouds
8:50 AM 60.8 °F 51.8 °F 72% 30.12 in 6.2 mi ESE 3.5 mph - N/A   Partly Cloudy
9:50 AM 64.4 °F 51.8 °F 64% 30.12 in 6.2 mi South 2.3 mph - N/A   Partly Cloudy
10:50 AM 66.2 °F 51.8 °F 60% 30.09 in 6.2 mi WSW 4.6 mph - N/A   Partly Cloudy
11:50 AM 68.0 °F 51.8 °F 56% 30.09 in 6.2 mi West 3.5 mph - N/A   Scattered Clouds
12:50 PM 66.2 °F 53.6 °F 64% 30.06 in 6.2 mi West 5.8 mph - N/A   Scattered Clouds
1:50 PM 66.2 °F 51.8 °F 60% 30.06 in 6.2 mi WNW 6.9 mph - N/A   Scattered Clouds
2:00 PM 66 °F 51 °F 48% 30.09 in 6 mi WNW 6.9 mph - -   Partly Cloudy
2:50 PM 66.2 °F 51.8 °F 60% 30.09 in 6.2 mi WNW 5.8 mph - N/A   Partly Cloudy
3:50 PM 64.4 °F 51.8 °F 64% 30.09 in 6.2 mi WNW 6.9 mph - N/A   Partly Cloudy
4:50 PM 64.4 °F 50.0 °F 59% 30.12 in 6.2 mi NNW 3.5 mph - N/A   Partly Cloudy
5:50 PM 62.6 °F 50.0 °F 63% 30.12 in - Calm Calm - N/A   Clear
6:50 PM 60.8 °F 51.8 °F 72% 30.15 in - SE 3.5 mph - N/A   Clear
7:50 PM 57.2 °F 51.8 °F 82% 30.15 in - East 3.5 mph - N/A   Clear
8:00 PM 58 °F 51 °F 71% 30.17 in 6 mi East 3.5 mph - -  
8:50 PM 57.2 °F 51.8 °F 82% 30.15 in - ENE 3.5 mph - N/A   Clear
9:50 PM 55.4 °F 50.0 °F 82% 30.15 in - ENE 3.5 mph - N/A   Clear
10:50 PM 55.4 °F 50.0 °F 82% 30.15 in - East 2.3 mph - N/A   Clear
11:50 PM 55.4 °F 50.0 °F 82% 30.15 in - East 2.3 mph - N/A   Clear